Flag for Belgium Weather past 2 weeks in Eupen, Belgium

48 °F

Passing clouds.

Feels Like: 47 °F
Forecast: 59 / 65 °F
Wind: 3 mph from South

Location: Elsenborn

Current Time: Oct 5, 2015 at 6:47:18 AM

Latest Report: Oct 5, 2015 at 5:55 AM

Visibility: N/A

Pressure: 29.95 "Hg

Humidity: 94%

Dew point: 46 °F

Location of EupenLocation

Historic Weather in Eupen — Graph


Eupen temperature yesterday

Maximum temperature yesterday: 55 °F (at 2:25 PM)
Minimum temperature yesterday: 39 °F (at 1:25 AM)
Average temperature yesterday: 49 °F

Past Weeks' High & Low Weather Summary

High63 °F (Oct 2, 2:25 PM)100% (Sep 20, 5:03 AM)30.60 "Hg (Sep 20, 5:03 AM)
Low30 °F (Oct 2, 3:55 AM)42% (Oct 2, 2:25 PM)29.53 "Hg (Sep 22, 2:55 PM)
Average48 °F83%30.19 "Hg
* Reported Sep 20 5:03 AM — Oct 5 5:25 AM, Eupen, Weather by CustomWeather, © 2015

Note: Actual official high and low records may vary slightly from our data, if they occured in-between our weather recording intervals... More about our weather records


Eupen weather history for previous 24 hours

Time TempWeatherWind HumidityBarometerVisibility
5:25 AM
Mon, Oct 5
48 °FPassing clouds.6 mph94%29.95 "HgN/A
4:55 AM50 °FPassing clouds.6 mph88%29.95 "HgN/A
4:25 AM48 °FOvercast.6 mph94%29.95 "HgN/A
3:55 AM48 °FPassing clouds.5 mph94%29.95 "HgN/A
3:25 AM48 °FPassing clouds.5 mph94%29.98 "HgN/A
2:55 AM48 °FPassing clouds.3 mph94%29.98 "HgN/A
2:25 AM48 °FPassing clouds.1 mph94%29.98 "Hg2 mi
1:55 AM48 °FPassing clouds.2 mph94%29.98 "Hg3 mi
1:25 AM48 °FPassing clouds.3 mph100%29.98 "Hg3 mi
1:03 AM48 °FPassing clouds.3 mph100%30.01 "Hg4 mi
12:55 AM48 °FCool.3 mph94%30.01 "Hg5 mi
12:25 AM48 °FPassing clouds.3 mph94%30.01 "Hg5 mi
11:55 PM
Sun, Oct 4
48 °FCool.3 mph100%30.01 "Hg4 mi
11:25 PM48 °FPassing clouds.3 mph100%30.01 "Hg5 mi
10:55 PM50 °FPassing clouds.3 mph94%30.01 "Hg5 mi
10:25 PM50 °FPassing clouds.3 mph100%30.01 "Hg6 mi
9:55 PM50 °FPassing clouds.6 mph94%30.04 "HgN/A
9:25 PM50 °FPassing clouds.5 mph94%30.01 "HgN/A
8:55 PM50 °FPassing clouds.6 mph94%30.01 "HgN/A
8:25 PM50 °FPassing clouds.6 mph94%30.01 "HgN/A
7:55 PM50 °FPartly sunny.2 mph94%30.01 "HgN/A
7:25 PM52 °FPartly sunny.3 mph88%30.01 "Hg1 mi
6:55 PM52 °FBroken clouds.7 mph88%30.01 "HgN/A
6:25 PM54 °FBroken clouds.6 mph88%30.01 "HgN/A
5:55 PM54 °FPartly sunny.8 mph88%30.01 "HgN/A
5:25 PM54 °FMore clouds than sun.5 mph88%30.01 "HgN/A
4:55 PM55 °FOvercast.8 mph82%30.01 "HgN/A
4:25 PM54 °FOvercast.7 mph88%30.04 "HgN/A
3:55 PM54 °FOvercast.6 mph88%30.04 "HgN/A
3:25 PM55 °FOvercast.6 mph82%30.04 "HgN/A
2:55 PM55 °FOvercast.7 mph77%30.04 "HgN/A
2:25 PM55 °FOvercast.7 mph82%30.04 "HgN/A
1:55 PM54 °FOvercast.8 mph82%30.07 "HgN/A
1:25 PM54 °FOvercast.7 mph82%30.04 "HgN/A
12:55 PM52 °FLow clouds.7 mph88%30.04 "HgN/A
12:25 PM54 °FOvercast.5 mph88%30.04 "HgN/A
11:55 AM54 °FLow clouds.7 mph88%30.04 "HgN/A
11:25 AM52 °FLow clouds.6 mph94%30.04 "HgN/A
10:55 AM52 °FLow clouds.5 mph100%30.04 "HgN/A
10:25 AM52 °FLow clouds.5 mph94%30.04 "Hg6 mi
9:55 AM52 °FLow clouds.5 mph94%30.04 "Hg3 mi
9:25 AM50 °FFog.5 mph100%30.04 "Hg2 mi
8:55 AM50 °FLow clouds.3 mph100%30.04 "Hg3 mi
8:25 AM50 °FFog.2 mph100%30.04 "Hg3 mi
7:55 AM50 °FFog.2 mph94%30.04 "Hg2 mi
7:25 AM50 °FFog.2 mph94%30.04 "Hg2 mi
6:55 AM48 °FLight rain. Overcast.2 mph100%30.04 "Hg2 mi
Weather by CustomWeather, © 2015

See weather overviewHow to use our weather pages